When you browse on this site, cookies collect data to enhance your experience and personalize the content and advertising you see.
Visit our Privacy Policy to learn more. By continuing to use the site, you agree to this use of cookies and data.
  • In Hungary
  • List of Countries
  • For 7 days
  • Water Temperature
  • Satellite Maps
  • Weather Map
  • News
  • Weather Widgets
  • user-avatar
    Login

    Hourly Weather Valle Hermoso

    Today, 21 February, Thursday

    Time Temperature Precipitation Wind Pressure Humidity
    00:00 +17°C° 0 mm 2 mps 757 mmHg 75%
    01:00 +17°C° 0 mm 2 mps 757 mmHg 75%
    02:00 +17°C° 0 mm 2 mps 757 mmHg 76%
    03:00 +16°C° 0 mm 2 mps 757 mmHg 78%
    04:00 +16°C° 0 mm 2 mps 757 mmHg 80%
    05:00 +16°C° 0 mm 2 mps 756 mmHg 82%
    06:00 +17°C° 0 mm 2 mps 757 mmHg 81%
    07:00 +18°C° 0 mm 1 mps 757 mmHg 80%
    08:00 +19°C° 0 mm 1 mps 757 mmHg 78%
    09:00 +21°C° 0 mm 1 mps 757 mmHg 71%
    10:00 +23°C° 0 mm 1 mps 757 mmHg 65%
    11:00 +24°C° 0 mm 1 mps 757 mmHg 58%
    12:00 +26°C° 0 mm 2 mps 756 mmHg 55%
    13:00 +27°C° 0 mm 3 mps 755 mmHg 53%
    14:00 +28°C° 0 mm 4 mps 755 mmHg 50%
    15:00 +27°C° 0 mm 4 mps 754 mmHg 55%
    16:00 +26°C° 0 mm 5 mps 754 mmHg 61%
    17:00 +25°C° 0 mm 5 mps 754 mmHg 66%
    18:00 +23°C° 0 mm 5 mps 755 mmHg 72%
    19:00 +22°C° 0 mm 4 mps 756 mmHg 78%
    20:00 +22°C° 0 mm 3 mps 756 mmHg 84%
    21:00 +22°C° 0 mm 3 mps 756 mmHg 85%
    22:00 +22°C° 0 mm 3 mps 757 mmHg 87%
    23:00 +22°C° 0 mm 3 mps 757 mmHg 88%

    Tomorrow, 22 February, Friday

    Time Temperature Precipitation Wind Pressure Humidity
    00:00 +22°C° 0 mm 3 mps 757 mmHg 89%
    01:00 +22°C° 0 mm 3 mps 756 mmHg 90%
    02:00 +22°C° 0 mm 3 mps 756 mmHg 91%
    03:00 +22°C° 0 mm 3 mps 756 mmHg 93%
    04:00 +21°C° 0 mm 3 mps 756 mmHg 95%
    05:00 +21°C° 0 mm 3 mps 756 mmHg 97%
    06:00 +22°C° 0 mm 4 mps 757 mmHg 92%
    07:00 +23°C° 0 mm 5 mps 757 mmHg 87%
    08:00 +24°C° 0 mm 6 mps 758 mmHg 81%
    09:00 +26°C° 0 mm 6 mps 758 mmHg 79%
    10:00 +26°C° 0 mm 6 mps 758 mmHg 76%
    11:00 +27°C° 0 mm 7 mps 758 mmHg 74%
    12:00 +28°C° 0 mm 7 mps 757 mmHg 72%
    13:00 +28°C° 0 mm 7 mps 756 mmHg 70%
    14:00 +29°C° 0 mm 7 mps 755 mmHg 68%
    15:00 +28°C° 0 mm 7 mps 755 mmHg 72%
    16:00 +27°C° 0 mm 7 mps 755 mmHg 76%
    17:00 +26°C° 0 mm 7 mps 755 mmHg 80%
    18:00 +26°C° 0 mm 7 mps 755 mmHg 83%
    19:00 +26°C° 0 mm 6 mps 756 mmHg 85%
    20:00 +25°C° 0 mm 5 mps 756 mmHg 87%
    21:00 +24°C° 0 mm 6 mps 756 mmHg 87%
    22:00 +24°C° 0 mm 7 mps 756 mmHg 87%
    23:00 +24°C° 0 mm 8 mps 756 mmHg 88%

    Day after tomorrow, 23 February, Saturday

    Time Temperature Precipitation Wind Pressure Humidity
    00:00 +24°C° 0 mm 8 mps 756 mmHg 85%
    01:00 +26°C° 0 mm 9 mps 756 mmHg 82%
    02:00 +26°C° 0 mm 10 mps 755 mmHg 79%
    03:00 +26°C° 0 mm 9 mps 755 mmHg 80%
    04:00 +26°C° 0 mm 9 mps 755 mmHg 81%
    05:00 +24°C° 0 mm 8 mps 756 mmHg 82%
    06:00 +26°C° 0 mm 6 mps 756 mmHg 82%
    07:00 +26°C° 0 mm 4 mps 757 mmHg 81%
    08:00 +26°C° 0 mm 1 mps 758 mmHg 81%
    09:00 +28°C° 0 mm 3 mps 759 mmHg 71%
    10:00 +29°C° 0 mm 4 mps 760 mmHg 62%
    11:00 +30°C° 0 mm 6 mps 760 mmHg 53%
    12:00 +29°C° 0 mm 6 mps 760 mmHg 47%
    13:00 +28°C° 0 mm 7 mps 759 mmHg 42%
    14:00 +27°C° 0 mm 8 mps 759 mmHg 36%
    15:00 +27°C° 0 mm 7 mps 759 mmHg 34%
    16:00 +27°C° 0 mm 6 mps 759 mmHg 32%
    17:00 +26°C° 0 mm 5 mps 760 mmHg 29%
    18:00 +25°C° 0 mm 4 mps 761 mmHg 32%
    19:00 +25°C° 0 mm 4 mps 761 mmHg 35%
    20:00 +24°C° 0 mm 3 mps 762 mmHg 37%
    21:00 +22°C° 0 mm 3 mps 763 mmHg 37%
    22:00 +23°C° 0 mm 2 mps 763 mmHg 37%
    23:00 +21°C° 0 mm 2 mps 764 mmHg 36%

    24 February, Sunday

    Time Temperature Precipitation Wind Pressure Humidity
    00:00 +21°C° 0 mm 2 mps 763 mmHg 35%
    01:00 +21°C° 0 mm 2 mps 763 mmHg 34%
    02:00 +20°C° 0 mm 2 mps 763 mmHg 33%
    03:00 +20°C° 0 mm 2 mps 763 mmHg 34%
    04:00 +19°C° 0 mm 2 mps 763 mmHg 36%
    05:00 +19°C° 0 mm 2 mps 763 mmHg 37%
    06:00 +20°C° 0 mm 2 mps 764 mmHg 36%
    07:00 +21°C° 0 mm 2 mps 765 mmHg 35%
    08:00 +22°C° 0 mm 3 mps 766 mmHg 34%
    09:00 +24°C° 0 mm 3 mps 766 mmHg 30%
    10:00 +25°C° 0 mm 4 mps 766 mmHg 26%
    11:00 +27°C° 0 mm 5 mps 766 mmHg 21%
    12:00 +27°C° 0 mm 5 mps 765 mmHg 23%
    13:00 +27°C° 0 mm 6 mps 764 mmHg 25%
    14:00 +27°C° 0 mm 6 mps 763 mmHg 26%
    15:00 +26°C° 0 mm 6 mps 763 mmHg 32%
    16:00 +23°C° 0 mm 6 mps 763 mmHg 38%
    17:00 +22°C° 0 mm 6 mps 763 mmHg 44%
    18:00 +21°C° 0 mm 5 mps 764 mmHg 49%
    19:00 +21°C° 0 mm 5 mps 764 mmHg 55%
    20:00 +20°C° 0 mm 4 mps 765 mmHg 60%
    21:00 +20°C° 0 mm 3 mps 765 mmHg 62%
    22:00 +19°C° 0 mm 3 mps 765 mmHg 64%
    23:00 +19°C° 0 mm 2 mps 765 mmHg 66%

    25 February, Monday

    Time Temperature Precipitation Wind Pressure Humidity
    00:00 +19°C° 0 mm 2 mps 764 mmHg 67%
    01:00 +18°C° 0 mm 2 mps 764 mmHg 68%
    02:00 +18°C° 0 mm 2 mps 764 mmHg 69%
    03:00 +18°C° 0 mm 3 mps 764 mmHg 70%
    04:00 +18°C° 0 mm 3 mps 764 mmHg 71%
    05:00 +18°C° 0 mm 3 mps 764 mmHg 72%
    06:00 +19°C° 0 mm 3 mps 765 mmHg 72%
    07:00 +19°C° 0 mm 3 mps 765 mmHg 72%
    08:00 +20°C° 0 mm 3 mps 765 mmHg 72%
    09:00 +21°C° 0 mm 4 mps 765 mmHg 70%
    10:00 +21°C° 0 mm 4 mps 765 mmHg 68%
    11:00 +22°C° 0 mm 4 mps 765 mmHg 67%
    12:00 +22°C° 0 mm 4 mps 764 mmHg 68%
    13:00 +22°C° 0 mm 4 mps 763 mmHg 69%
    14:00 +22°C° 0 mm 4 mps 762 mmHg 70%
    15:00 +22°C° 0 mm 4 mps 762 mmHg 72%
    16:00 +22°C° 0 mm 5 mps 762 mmHg 74%
    17:00 +22°C° 0 mm 5 mps 762 mmHg 76%
    18:00 +22°C° 0 mm 4 mps 762 mmHg 80%
    19:00 +22°C° 0 mm 3 mps 762 mmHg 84%
    20:00 +21°C° 0 mm 2 mps 763 mmHg 88%
    21:00 +21°C° 0.1 mm 2 mps 762 mmHg 91%
    22:00 +21°C° 0.1 mm 2 mps 762 mmHg 93%
    23:00 +22°C° 0.1 mm 1 mps 762 mmHg 95%

    26 February, Tuesday

    Time Temperature Precipitation Wind Pressure Humidity
    00:00 +22°C° 0.1 mm 1 mps 761 mmHg 96%
    01:00 +22°C° 0.1 mm 1 mps 761 mmHg 96%
    02:00 +22°C° 0.1 mm 1 mps 761 mmHg 96%
    03:00 +22°C° 0 mm 1 mps 761 mmHg 96%
    04:00 +21°C° 0 mm 2 mps 760 mmHg 96%
    05:00 +21°C° 0 mm 2 mps 760 mmHg 96%
    06:00 +23°C° 0 mm 2 mps 761 mmHg 91%
    07:00 +24°C° 0 mm 3 mps 761 mmHg 86%
    08:00 +25°C° 0 mm 3 mps 761 mmHg 81%
    09:00 +26°C° 0 mm 4 mps 761 mmHg 75%
    10:00 +28°C° 0 mm 5 mps 761 mmHg 68%
    11:00 +29°C° 0 mm 5 mps 761 mmHg 62%
    12:00 +29°C° 0 mm 6 mps 760 mmHg 60%
    13:00 +30°C° 0 mm 6 mps 759 mmHg 59%
    14:00 +30°C° 0 mm 6 mps 758 mmHg 57%
    15:00 +29°C° 0 mm 6 mps 758 mmHg 61%
    16:00 +28°C° 0 mm 6 mps 758 mmHg 65%
    17:00 +27°C° 0 mm 6 mps 758 mmHg 70%
    18:00 +27°C° 0 mm 5 mps 759 mmHg 75%
    19:00 +26°C° 0 mm 5 mps 759 mmHg 80%
    20:00 +25°C° 0 mm 5 mps 760 mmHg 85%
    21:00 +25°C° 0 mm 4 mps 760 mmHg 86%
    22:00 +25°C° 0 mm 4 mps 760 mmHg 87%
    23:00 +23°C° 0 mm 4 mps 759 mmHg 88%
    Show more